Content
SEND FEEDBACK

Daily
Averages
Monthly
Summary
France

LE HAVRE, FRANCE


Home > Europe > France
Elevation: 338 feet     Latitude: 49 31N     Longitude: 000 04E

WEATHER
 
SELECT A DAY
Number of Records: 175,549;   Date Range: 3/4/97 - 7/9/14
 
SHARE

PRINT THIS DATA

[ ← Previous Day ]
WEATHER ALMANAC - MARCH 23, 2013
[ Next Day → ]
[ °C ]   °F
Weather ElementAverageHighLow
Temperature45.6 °F48.2 °F (12:30 am)42.8 °F (7:30 am)
Dewpoint41.9 °F46.4 °F (3:00 pm)39.2 °F (12:30 am)
Humidity87.1 %100 % (3:00 pm)71 % (12:30 am)
Barometer29.67 in29.74 in (11:30 pm)29.62 in (12:30 am)
Wind Speed6.6 mph10.4 mph (12:30 am)
Weather ElementAverage
Visibility2.1 mi
Wind DirectionESE (113.8 °)

Weather ElementTotal
Precipitation---
Heating Degree Days19.5 (Base 65)
Averaged from 47 records on March 23, 2013
WEATHER CONDITIONS BREAKOUT
WIND DIRECTION BREAKOUT
WEATHER BY HOUR - MARCH 23, 2013
[ °C ]   °F
Local TimeTemperatureDewpointHumidityBarometerVisibilityWind DirectionWind SpeedGust SpeedPrecipitationEventsConditions
12:30 AM48.2 °F39.2 °F71 %29.62 in5.0 miESE (110°)10.4 mphOvercast
1:00 AM48.2 °F39.2 °F71 %29.62 in5.0 miESE (110°)9.2 mphRainLight Rain
1:30 AM48.2 °F39.2 °F71 %29.62 in5.0 miESE (110°)9.2 mphOvercast
2:00 AM48.2 °F39.2 °F71 %29.62 in5.0 miESE (110°)8.1 mphRainLight Rain
2:30 AM46.4 °F39.2 °F76 %29.62 in3.7 miESE (110°)8.1 mphRainLight Rain
3:00 AM46.4 °F41.0 °F81 %29.62 inESE (110°)8.1 mphRainLight Rain
3:30 AM44.6 °F41.0 °F87 %29.62 in3.1 miEast (100°)8.1 mphOvercast
4:00 AM44.6 °F41.0 °F87 %29.62 in3.1 miEast (100°)6.9 mphMostly Cloudy
4:30 AM44.6 °F41.0 °F87 %29.62 in3.1 miEast (100°)9.2 mphOvercast
5:00 AM44.6 °F41.0 °F87 %29.62 in3.1 miESE (110°)6.9 mphOvercast
5:30 AM44.6 °F39.2 °F81 %29.65 in3.1 miESE (120°)9.2 mphOvercast
6:00 AM44.6 °F41.0 °F87 %29.65 inESE (110°)9.2 mphOvercast
6:30 AM44.6 °F41.0 °F87 %29.65 in2.8 miESE (110°)8.1 mphOvercast
7:00 AM44.6 °F41.0 °F87 %29.65 inESE (110°)8.1 mphOvercast
7:30 AM42.8 °F41.0 °F93 %29.65 inESE (110°)8.1 mphOvercast
8:00 AM44.6 °F41.0 °F87 %29.65 inESE (120°)6.9 mphOvercast
8:30 AM44.6 °F41.0 °F87 %29.65 inESE (120°)8.1 mphOvercast
9:00 AM44.6 °F41.0 °F87 %29.68 in1.7 miESE (120°)9.2 mphOvercast
9:30 AM44.6 °F41.0 °F87 %29.68 in1.7 miEast (100°)6.9 mphOvercast
10:00 AM44.6 °F41.0 °F87 %29.68 in1.6 miESE (120°)5.8 mphOvercast
10:30 AM44.6 °F41.0 °F87 %29.68 in1.6 miESE (110°)4.6 mphOvercast
11:00 AM44.6 °F41.0 °F87 %29.68 in1.2 miEast (90°)5.8 mphOvercast
11:30 AM44.6 °F42.8 °F93 %29.68 in1.3 miESE (110°)4.6 mphOvercast
12:00 PM44.6 °F42.8 °F93 %29.68 in1.4 miVariable3.5 mphOvercast
12:30 PM46.4 °F42.8 °F87 %29.68 in1.2 miSE (130°)3.5 mphOvercast
1:00 PM46.4 °F44.6 °F93 %29.71 in0.9 miVariable3.5 mphOvercast
1:30 PM46.4 °F44.6 °F93 %29.71 in0.4 miESE (120°)4.6 mphFogFog
2:00 PM46.4 °F44.6 °F93 %29.68 inVariable2.3 mphFogFog
2:30 PM46.4 °F44.6 °F93 %29.68 in0.6 miVariable2.3 mphFogFog
3:00 PM46.4 °F46.4 °F100 %29.68 in1.1 miEast (100°)1.2 mphOvercast
3:30 PM46.4 °F44.6 °F93 %29.68 in0.7 miWNW (290°)3.5 mphOvercast
4:00 PM46.4 °F44.6 °F93 %29.68 in0.3 miWest (270°)3.5 mphFogFog
4:30 PM46.4 °F44.6 °F93 %29.68 in0.1 miWest (260°)3.5 mphFogFog
5:00 PM46.4 °F44.6 °F93 %29.68 in0.1 miWNW (300°)4.6 mphFogFog
5:30 PM46.4 °F44.6 °F93 %29.68 in0.1 miNW (320°)4.6 mphFogFog
6:00 PM46.4 °F46.4 °F100 %29.68 in0.6 miNorth (360°)3.5 mphMist
6:30 PM46.4 °F46.4 °F100 %29.68 in1.0 miNNE (30°)5.8 mphOvercast
7:00 PM46.4 °F42.8 °F87 %29.68 inENE (60°)10.4 mphOvercast
7:30 PM46.4 °F42.8 °F87 %29.71 inENE (60°)9.2 mphOvercast
8:00 PM46.4 °F41.0 °F81 %29.71 in2.5 miENE (60°)8.1 mphOvercast
8:30 PM44.6 °F41.0 °F87 %29.71 in2.2 miENE (60°)8.1 mphMostly Cloudy
9:00 PM44.6 °F41.0 °F87 %29.71 in2.2 miENE (70°)6.9 mphOvercast
9:30 PM44.6 °F41.0 °F87 %29.71 inENE (70°)8.1 mphOvercast
10:00 PM44.6 °F41.0 °F87 %29.71 in2.8 miENE (70°)8.1 mphOvercast
10:30 PM44.6 °F41.0 °F87 %29.71 inENE (70°)8.1 mphOvercast
11:00 PM44.6 °F39.2 °F81 %29.71 inENE (60°)8.1 mphOvercast
11:30 PM44.6 °F39.2 °F81 %29.74 in3.1 miENE (70°)6.9 mphOvercast
Hourly data recorded from LFOH, located miles away from Le Havre, France







STORIES FROM OUR PARTNERS